Theta_e
301 301 299 299 299 299 298 297 294 291 292 296 296 300 301 302 306 305 302 310 315 315 314 312 313 312 310 309 308 307 306 306 307 308 310 310 311 312
304 301 299 300 300 300 299 298 296 295 292 295 298 299 301 304 306 306 304 311 314 314 314 312 312 312 311 309 307 306 305 305 305 305 306 307 308 309
301 301 302 302 301 302 305 301 299 297 295 297 297 299 298 299 301 302 304 304 303 310 313 312 312 311 311 310 308 306 305 305 305 305 305 306 308 309
303 303 303 306 303 303 305 304 302 302 297 294 295 296 297 298 301 303 303 304 302 307 312 311 310 309 309 309 308 307 305 306 306 305 305 305 305 306
303 302 303 304 302 301 303 304 305 302 297 295 294 294 295 297 297 297 298 297 301 308 307 307 307 307 308 308 308 307 305 305 305 305 305 305 305 305
304 305 304 304 303 304 306 306 305 299 296 294 293 293 293 295 294 294 293 294 294 299 301 303 304 305 306 307 307 307 306 305 303 304 303 304 304 304
301 302 303 307 314 312 308 303 298 296 294 292 291 290 291 292 292 292 291 291 292 292 293 294 295 295 295 301 303 305 306 304 304 303 302 301 301 301
299 302 305 310 309 309 307 307 304 299 296 290 289 290 291 291 292 291 290 288 288 293 292 292 293 293 294 295 302 304 303 304 304 303 302 301 301 300
301 303 305 305 300 299 301 302 300 303 302 293 291 293 296 295 292 290 289 289 289 293 292 290 291 291 294 297 301 302 302 302 303 302 302 301 300 299
304 302 297 294 295 298 298 295 295 296 297 298 297 297 298 296 295 293 292 291 292 293 297 291 290 291 294 294 299 301 302 301 301 302 301 301 299 299
300 298 295 293 297 297 295 293 293 294 300 301 301 300 299 300 301 293 295 294 295 294 297 293 293 295 295 292 294 301 301 300 302 302 301 301 300 299
294 295 300 294 296 296 293 292 291 292 293 294 296 298 301 302 302 299 298 295 295 294 298 295 294 294 293 293 292 294 294 299 300 300 300 300 300 299
296 294 293 296 295 295 295 292 293 293 295 293 294 296 297 299 299 301 301 299 297 296 301 298 296 295 294 294 295 293 293 295 295 296 298 298 298 298
295 296 295 295 295 295 295 295 295 296 293 293 293 294 294 295 297 297 298 300 302 301 303 301 298 294 294 294 293 295 297 295 296 296 298 296 298 298
294 294 296 294 294 294 295 296 296 293 293 293 292 292 293 295 296 296 296 297 298 300 302 302 298 298 298 296 293 293 294 296 296 294 295 297 296 295
294 292 295 295 294 296 296 296 294 294 294 292 291 293 294 294 293 296 295 296 293 295 298 297 297 298 294 297 294 296 295 296 295 299 299 297 296 297
291 291 292 292 292 291 292 292 293 293 292 291 291 291 293 294 295 296 294 293 290 290 291 294 295 294 296 295 291 293 296 296 297 298 298 295 294 295
290 289 290 292 292 291 290 290 291 292 291 291 291 295 295 295 295 293 292 290 289 290 290 291 291 295 292 294 300 294 295 293 298 299 298 295 295 295
289 289 290 291 291 290 290 290 290 291 290 291 295 294 295 295 294 291 291 290 292 291 292 293 292 293 287 286 292 300 296 297 297 296 296 296 293 295
290 291 290 289 291 290 290 290 291 291 290 290 291 291 290 290 290 289 289 288 289 289 290 291 293 295 288 284 289 296 296 296 297 294 294 293 295 295
290 289 288 288 289 290 289 290 289 289 289 289 288 287 287 287 286 287 287 288 287 288 287 288 294 290 292 291 289 291 296 297 299 295 292 292 288 289
289 288 288 288 288 287 287 287 287 287 286 285 285 284 284 284 285 285 286 286 287 288 288 291 294 293 291 290 290 293 295 296 297 298 297 295 291 286
289 288 287 287 287 287 287 286 285 284 284 283 282 283 283 283 285 285 285 286 286 286 288 290 292 292 290 290 289 293 293 288 288 290 292 296 297 297
Wind_Speed
3 1 1 1 1 2 2 3 4 3 4 4 3 4 5 5 8 6 6 10 13 12 10 8 9 11 11 10 9 10 13 14 15 13 14 15 18 20
3 3 2 1 1 1 1 3 3 4 3 3 4 4 6 7 8 5 6 9 12 9 9 10 11 11 11 11 11 11 12 13 13 13 14 15 18 19
3 5 5 3 4 4 3 2 2 4 4 4 3 3 4 5 6 4 2 2 3 9 9 10 13 13 12 13 13 13 12 12 13 13 14 16 12 11
5 4 6 3 5 4 3 5 4 3 3 4 3 3 3 2 3 3 4 4 4 8 10 10 7 8 9 11 13 14 11 11 12 12 13 13 14 14
5 4 6 4 5 4 4 5 2 1 3 3 4 2 4 2 3 2 2 5 4 11 9 6 5 7 9 12 14 13 12 11 10 10 11 12 13 13
6 4 6 6 6 6 5 5 3 2 2 1 3 4 3 2 1 2 3 2 4 3 5 4 9 10 11 12 15 13 10 10 11 10 9 9 9 10
6 6 7 8 11 5 2 3 1 1 2 2 3 2 2 2 2 2 2 3 4 2 2 3 3 4 5 9 9 11 11 9 10 10 10 10 9 9
6 7 7 9 6 6 10 7 4 2 3 2 2 2 3 3 2 2 2 2 4 2 2 4 2 4 4 4 9 10 12 11 11 10 10 10 10 11
6 6 6 3 6 4 7 8 7 8 3 3 2 3 3 3 2 2 3 3 4 5 1 4 1 3 4 5 10 12 11 10 10 8 10 11 11 11
4 4 5 3 2 3 4 4 5 6 5 4 4 5 5 6 5 4 4 4 4 4 3 4 2 4 4 4 9 9 4 6 7 8 10 10 11 11
3 5 6 4 3 4 4 2 4 5 6 9 10 10 9 8 5 2 4 2 3 3 2 2 3 3 3 4 4 7 7 8 7 8 9 11 12 11
1 2 3 4 5 5 2 1 4 5 6 7 7 6 6 4 6 4 3 4 4 3 2 2 2 1 3 2 3 4 5 10 12 12 11 11 10 5
3 4 3 6 7 6 6 3 5 2 7 5 5 4 4 4 4 4 4 4 3 4 5 3 2 2 3 4 3 3 4 6 5 5 10 11 11 8
0 1 4 9 9 7 6 8 7 3 3 4 3 3 4 4 5 5 6 5 6 9 10 5 4 4 3 3 4 3 3 5 4 5 4 5 9 9
1 3 9 10 9 5 9 6 4 2 3 3 4 3 3 4 6 5 5 5 6 7 5 4 5 5 5 5 4 4 3 3 3 4 4 4 3 3
4 5 5 5 6 4 2 4 2 2 2 2 3 4 4 3 3 2 3 5 3 4 6 6 5 4 3 6 4 6 5 3 3 4 3 3 3 4
3 2 3 1 1 1 1 3 3 3 3 3 3 4 3 2 3 3 3 3 2 4 5 6 6 5 4 4 3 5 6 4 4 5 2 3 3 4
1 1 2 3 4 3 3 3 2 3 4 3 4 3 3 3 4 3 3 3 4 4 4 4 3 3 4 4 9 5 3 3 3 3 2 2 3 3
1 0 1 3 3 4 4 4 3 3 3 4 5 4 4 4 5 4 4 4 6 5 7 5 3 1 2 4 5 5 3 6 3 2 2 3 2 3
2 2 2 4 4 3 3 3 4 4 3 4 4 4 4 4 5 5 4 4 5 5 6 5 3 3 3 4 3 6 2 4 2 2 2 2 3 4
2 2 2 1 2 0 2 3 3 3 2 3 4 4 5 4 6 5 5 7 7 4 5 6 5 5 3 2 3 4 5 4 3 1 1 1 2 3
1 0 1 2 2 2 2 2 2 3 4 4 5 4 5 4 6 6 5 6 6 5 7 7 6 1 1 2 4 5 3 3 2 3 3 4 2 2
0 2 2 1 2 3 2 2 3 3 4 4 4 5 6 7 6 5 6 6 5 6 7 4 3 2 1 2 3 4 2 3 3 4 3 5 7 8
Wind_Direction
268 264 169 177 113 121 122 142 144 325 306 305 299 276 278 277 271 270 249 238 234 237 241 232 223 237 249 265 281 295 305 307 300 291 287 288 285 280
254 269 295 278 291 239 148 159 168 170 245 220 279 283 306 307 300 301 237 243 266 265 260 229 240 244 251 259 264 275 299 301 293 291 288 282 275 271
265 251 266 267 266 246 216 210 190 166 208 290 246 291 309 332 342 350 337 308 283 291 278 243 249 239 247 254 265 279 300 288 282 285 285 282 293 294
249 265 272 268 257 247 248 248 235 190 181 246 270 292 262 293 288 339 355 354 332 307 304 295 274 246 247 244 260 269 278 282 281 280 281 281 281 291
253 266 280 285 284 272 264 270 255 240 198 197 271 266 264 284 313 316 333 313 312 311 331 337 337 307 262 253 263 269 272 263 262 264 281 272 272 276
267 269 273 269 259 271 260 269 259 264 259 258 282 271 248 277 260 253 310 291 290 306 319 345 329 310 307 294 290 285 265 261 259 252 262 267 269 277
276 275 270 272 269 298 220 298 124 271 297 291 271 271 275 308 267 269 270 290 291 245 292 299 298 294 293 302 305 310 296 283 273 246 249 261 266 267
287 294 283 300 297 47 55 57 37 1 297 246 256 242 261 244 250 245 260 345 323 259 289 284 238 295 287 289 290 312 296 286 291 248 251 256 256 250
274 283 303 38 80 65 28 27 4 358 61 190 272 251 262 228 222 262 246 217 233 266 197 278 252 293 277 273 289 298 290 292 283 249 261 254 251 257
297 304 124 127 105 71 44 18 355 340 323 318 281 277 254 257 218 202 223 255 268 275 213 263 237 267 276 274 292 296 308 332 303 281 273 266 256 260
348 144 149 156 164 103 68 10 328 312 311 317 309 295 298 289 273 174 266 251 284 261 234 205 277 278 291 294 283 268 305 295 281 275 273 276 262 263
92 226 198 186 201 183 158 160 344 304 325 327 333 335 329 342 318 216 283 280 293 283 234 217 261 252 306 263 280 275 289 276 269 263 262 263 263 263
210 237 249 243 227 233 209 214 232 255 307 299 307 315 324 316 309 301 240 220 246 233 257 186 245 238 222 285 270 243 232 267 260 262 259 257 254 247
121 306 234 239 231 250 267 262 271 312 312 298 306 307 313 310 300 298 287 260 240 245 265 187 238 199 213 251 259 279 252 252 235 261 254 245 257 258
223 248 261 262 231 279 271 292 348 356 316 318 318 298 278 278 292 297 292 275 275 272 260 231 212 248 225 238 254 262 300 279 236 247 260 248 237 216
352 320 314 231 191 235 350 8 331 270 236 282 276 277 285 307 297 285 300 326 302 301 297 284 257 223 243 240 237 272 252 266 284 265 246 256 246 226
322 359 352 272 252 295 349 304 289 312 274 270 271 285 279 280 286 314 289 309 263 291 300 306 316 277 227 234 279 251 270 268 258 267 199 280 273 247
166 107 306 216 212 223 227 263 258 275 269 267 280 273 288 297 302 306 295 288 292 292 289 287 304 336 348 302 229 261 271 266 268 282 230 247 274 289
22 282 291 223 235 226 232 243 252 257 263 278 296 310 313 310 307 303 297 297 311 307 302 304 283 325 322 298 281 283 279 301 277 283 246 232 252 286
43 24 339 299 245 240 274 264 279 302 320 313 329 340 325 307 309 299 292 288 293 300 301 307 254 222 206 232 273 287 282 287 251 267 304 306 282 307
4 16 306 16 69 103 322 311 305 326 337 329 315 309 301 299 304 291 287 290 293 289 294 294 275 221 258 307 318 302 302 344 290 238 271 337 301 334
9 335 56 92 73 37 17 49 32 350 333 318 315 302 298 287 290 294 291 296 299 289 288 288 297 267 294 234 289 292 288 322 316 309 260 205 193 290
153 67 137 54 41 62 61 26 5 330 321 309 301 306 304 303 296 288 296 291 287 295 292 299 302 267 259 253 271 291 296 320 326 333 317 293 263 259